Home > Time Zones > World Clock > Weather > Peru > Cuzco > Past weeks

Flag for Peru Weather past 2 weeks in Cuzco, Cusco, Peru

Now
64 °F

Broken clouds.


Feels Like: 64 °F
Forecast: N/A
Wind: 8 mph from Northeast

Location: Cuzco Airport

Current Time: Mar 29, 2015 at 5:32:02 PM

Latest Report: Mar 29, 2015 at 5:00 PM


Visibility: N/A

Pressure: 30.39 "Hg

Humidity: 43%

Dew point: 41 °F

Location of CuzcoLocation

Historic Weather in Cuzco — Graph

°F

Cuzco temperature yesterday

Maximum temperature yesterday: 72 °F (at 2:00 PM)
Minimum temperature yesterday: 43 °F (at 4:00 AM)
Average temperature yesterday: 55 °F

Past Weeks' High & Low Weather Summary

 TemperatureHumidityPressure
High72 °F (Mar 28, 2:00 PM)93% (Mar 15, 3:00 AM)30.60 "Hg (Mar 15, 3:00 AM)
Low39 °F (Mar 24, 2:00 AM)19% (Mar 23, 5:00 PM)30.30 "Hg (Mar 17, 4:00 PM)
Average55 °F63%30.47 "Hg
* Reported Mar 14 4:00 PM — Mar 29 4:00 PM, Cuzco, Weather by CustomWeather, © 2015

Note: Actual official high and low records may vary slightly from our data, if they occured in-between our weather recording intervals... More about our weather records

Advertising

Cuzco weather history for previous 24 hours

 ConditionsComfort  
Time TempWeatherWind HumidityBarometerVisibility
4:00 PM
Sun, Mar 29
64 °FBroken clouds.13 mph43%30.39 "HgN/A
3:00 PM68 °FBroken clouds.7 mph35%30.39 "HgN/A
2:00 PM68 °FScattered clouds.5 mph33%30.42 "HgN/A
1:00 PM70 °FBroken clouds.8 mph38%30.48 "HgN/A
12:00 PM64 °FPartly sunny.15 mph43%30.51 "HgN/A
11:00 AM64 °FScattered clouds.5 mph43%30.54 "HgN/A
10:00 AM63 °FBroken clouds.5 mph52%30.60 "HgN/A
9:00 AM55 °FBroken clouds.No wind63%30.60 "HgN/A
8:00 AM52 °FBroken clouds.No wind72%30.60 "HgN/A
7:00 AM46 °FBroken clouds.No wind82%30.57 "HgN/A
6:00 AM46 °FBroken clouds.1 mph82%30.54 "HgN/A
5:00 AM46 °FPartly cloudy.No wind82%30.54 "HgN/A
4:00 AM46 °FPartly cloudy.2 mph82%30.51 "HgN/A
3:00 AM46 °FPartly cloudy.2 mph82%30.54 "HgN/A
2:00 AM50 °FPartly cloudy.2 mph71%30.54 "HgN/A
1:00 AM50 °FPartly cloudy.1 mph76%30.57 "HgN/A
12:00 AM50 °FPartly cloudy.2 mph76%30.57 "HgN/A
11:00 PM
Sat, Mar 28
50 °FPartly cloudy.2 mph71%30.57 "HgN/A
10:00 PM50 °FPassing clouds.1 mph71%30.57 "HgN/A
9:00 PM50 °FPassing clouds.5 mph71%30.54 "HgN/A
8:00 PM55 °FPassing clouds.No wind59%30.51 "HgN/A
7:00 PM57 °FPassing clouds.3 mph55%30.48 "HgN/A
6:00 PM61 °FPassing clouds.10 mph42%30.42 "HgN/A
5:00 PM63 °FBroken clouds.8 mph37%30.42 "HgN/A
Weather by CustomWeather, © 2015

See weather overviewHow to use our weather pages